This demonstration page uses our WeatherBlox Daily Observations layout. Learn more.

Hourly Observations for August 27, 2015

Temp ( °F °C ) Dew Point ( °F °C ) Humidity (%) Winds ( mph kmh ) Pressure ( in mb ) Visibility ( mi km ) Precip ( " mm )
12:15 am 00:15 Clear 73 23 69 20.5 86 86 SSE 10 17 29.91 1013 10 16.0934 0 0
12:35 am 00:35 Clear 73 22.5 69 20.5 89 89 SE 9 15 29.91 1013 10 16.0934 0 0
12:55 am 00:55 Clear 73 22.5 69 20.5 89 89 SSE 8 13 29.91 1013 10 16.0934 0 0
1:15 am 01:15 Clear 73 22.6 69 20.5 88 88 SSE 9 15 29.91 1013 10 16.0934 0 0
1:35 am 01:35 Clear 72 22.3 69 20.5 90 90 SSE 8 13 29.88 1012 10 16.0934 0 0
1:55 am 01:55 Clear 72 22.1 69 20.3 90 90 SSE 7 11 29.88 1012 10 16.0934 0 0
2:15 am 02:15 Clear 71 21.8 68 20.1 90 90 SSE 7 11 29.88 1012 10 16.0934 0 0
2:35 am 02:35 Clear 71 21.6 68 20 91 91 SSE 7 11 29.88 1012 10 16.0934 0 0
2:55 am 02:55 Clear 71 21.5 68 20 91 91 SSE 8 13 29.88 1012 10 16.0934 0 0
3:15 am 03:15 Clear 70 21.1 68 19.8 92 92 SSE 8 13 29.88 1012 7 11.26538 0 0
3:35 am 03:35 Clear 70 21 67 19.7 92 92 SSE 7 11 29.88 1012 7 11.26538 0 0
3:55 am 03:55 Clear 69 20.8 67 19.6 93 93 SSE 7 11 29.88 1012 7 11.26538 0 0
4:15 am 04:15 Clear 69 20.6 67 19.5 93 93 SSE 8 13 29.88 1012 7 11.26538 0 0
4:35 am 04:35 Clear 69 20.5 67 19.4 93 93 S 7 11 29.88 1012 7 11.26538 0 0
4:55 am 04:55 Clear 69 20.5 67 19.4 93 93 SSE 7 11 29.88 1012 7 11.26538 0 0
5:15 am 05:15 Clear 69 20.3 66 19.1 93 93 SSE 8 13 29.88 1012 7 11.26538 0 0
5:35 am 05:35 Clear 68 20.2 66 19 93 93 SSE 8 13 29.85 1011 7 11.26538 0 0
5:55 am 05:55 Clear 68 20 66 18.8 93 93 SSE 7 11 29.85 1011 7 11.26538 0 0
6:15 am 06:15 Clear 68 19.8 65 18.6 93 93 SSE 7 11 29.85 1011 7 11.26538 0 0
6:35 am 06:35 Clear 67 19.5 65 18.5 94 94 SSE 7 11 29.85 1011 7 11.26538 0 0
6:55 am 06:55 Clear 67 19.5 65 18.3 93 93 S 8 13 29.85 1011 7 11.26538 0 0
7:15 am 07:15 Sunny 67 19.4 65 18.1 92 92 SSE 7 11 29.85 1011 7 11.26538 0 0
7:35 am 07:35 Sunny 67 19.5 65 18.1 92 92 SSE 8 13 29.85 1011 7 11.26538 0 0
7:55 am 07:55 Sunny 67 19.5 65 18.1 92 92 SSE 8 13 29.85 1011 7 11.26538 0 0
8:15 am 08:15 Sunny 67 19.7 65 18.2 91 91 SSE 7 11 29.85 1011 7 11.26538 0 0
8:35 am 08:35 Sunny 68 20.1 65 18.5 91 91 SSE 7 11 29.85 1011 10 16.0934 0 0
8:55 am 08:55 Sunny 69 20.8 65 18.6 87 87 SSE 7 11 29.85 1011 10 16.0934 0 0
9:15 am 09:15 Sunny 72 22.1 66 18.9 82 82 SSE 8 13 29.85 1011 10 16.0934 0 0
9:35 am 09:35 Sunny 73 23 66 18.7 77 77 SSE 7 11 29.83 1010 10 16.0934 0 0
9:55 am 09:55 Sunny 75 23.8 65 18.3 71 71 Calm 29.83 1010 10 16.0934 0 0
10:15 am 10:15 Sunny 76 24.6 65 18.1 67 67 SSE 7 11 29.8 1009 10 16.0934 0 0
10:35 am 10:35 Sunny 79 26.2 63 17.3 58 58 SSE 5 7 29.77 1008 10 16.0934 0 0
10:55 am 10:55 Sunny 79 26.3 63 17.1 57 57 SSE 7 11 29.77 1008 10 16.0934 0 0
11:15 am 11:15 Sunny 81 27.3 62 16.9 53 53 SSE 9 15 29.77 1008 10 16.0934 0 0
11:35 am 11:35 Sunny 81 27.2 62 16.6 52 52 SE 8 13 29.77 1008 10 16.0934 0 0
11:55 am 11:55 Sunny 83 28.6 62 16.9 49 49 SE 9 15 29.77 1008 10 16.0934 0 0
12:15 pm 12:15 Sunny 83 28.3 64 17.7 53 53 ESE 13 20 29.77 1008 10 16.0934 0 0
12:35 pm 12:35 Sunny 83 28.1 65 18.6 56 56 ESE 14 22 29.77 1008 10 16.0934 0 0
12:55 pm 12:55 Sunny 83 28.3 65 18.4 55 55 SE 10 17 29.77 1008 10 16.0934 0 0
1:15 pm 13:15 Sunny 84 28.9 65 18.4 53 53 ESE 13 20 29.77 1008 10 16.0934 0 0
1:35 pm 13:35 Sunny 85 29.6 65 18.4 51 51 SE 9 15 29.74 1007 10 16.0934 0 0
1:55 pm 13:55 Sunny 85 29.2 62 16.9 47 47 SE 12 19 29.74 1007 10 16.0934 0 0
2:15 pm 14:15 Partly Cloudy 83 28.5 62 16.6 49 49 ESE 10 17 29.74 1007 10 16.0934 0 0
2:35 pm 14:35 Sunny with Light Drizzle 81 27.3 67 19.2 61 61 ESE 13 20 29.74 1007 10 16.0934 0 0
2:55 pm 14:55 Partly Cloudy 82 27.5 67 19.4 61 61 ESE 16 26 29.71 1006 10 16.0934 0 0
3:15 pm 15:15 Sunny 83 28.3 68 20 61 61 ESE 21 33 29.68 1005 10 16.0934 0 0
3:35 pm 15:35 Sunny 86 30 68 19.8 54 54 ESE 20 31 29.65 1004 10 16.0934 0 0
3:55 pm 15:55 Sunny 86 29.8 68 19.8 55 55 SE 20 31 29.65 1004 10 16.0934 0 0
4:15 pm 16:15 Sunny 89 31.6 67 19.6 49 49 SE 20 31 29.62 1003 10 16.0934 0 0
4:35 pm 16:35 Sunny 91 32.6 65 18.3 43 43 SE 21 33 29.59 1002 10 16.0934 0 0
4:55 pm 16:55 Sunny 90 32.4 65 18.5 44 44 SSE 13 20 29.62 1003 10 16.0934 0 0
5:15 pm 17:15 Sunny 89 31.9 66 18.9 46 46 SE 18 30 29.62 1003 10 16.0934 0 0
5:35 pm 17:35 Sunny 87 30.7 68 20 53 53 SE 17 28 29.62 1003 10 16.0934 0 0
5:55 pm 17:55 Sunny 88 30.9 68 19.8 52 52 SE 22 35 29.62 1003 10 16.0934 0 0
6:15 pm 18:15 Sunny 85 29.4 67 19.3 55 55 SSE 23 37 29.62 1003 10 16.0934 0 0
6:35 pm 18:35 Sunny 83 28.2 66 19.1 58 58 SE 14 22 29.65 1004 10 16.0934 0 0
6:55 pm 18:55 Sunny 82 27.7 66 19 59 59 SSE 16 26 29.65 1004 10 16.0934 0 0
7:15 pm 19:15 Sunny 81 27.2 66 19 61 61 SSE 21 33 29.65 1004 10 16.0934 0 0
7:35 pm 19:35 Sunny 80 26.5 67 19.2 64 64 SE 16 26 29.68 1005 10 16.0934 0 0
7:55 pm 19:55 Sunny 78 25.8 66 18.9 66 66 SSE 13 20 29.68 1005 10 16.0934 0 0
8:15 pm 20:15 Sunny 77 25.2 65 18.3 66 66 SSE 17 28 29.68 1005 10 16.0934 0 0
8:35 pm 20:35 Clear 76 24.5 64 18 67 67 SSE 18 30 29.68 1005 10 16.0934 0 0
8:55 pm 20:55 Clear 75 24 64 17.5 67 67 SSE 13 20 29.71 1006 10 16.0934 0 0
9:15 pm 21:15 Clear 74 23.5 64 17.5 69 69 SSE 13 20 29.71 1006 10 16.0934 0 0
9:35 pm 21:35 Clear 74 23.2 64 17.6 71 71 SSE 10 17 29.71 1006 10 16.0934 0 0
9:55 pm 21:55 Clear 72 22.3 64 17.8 76 76 SSE 10 17 29.71 1006 10 16.0934 0 0
10:15 pm 22:15 Clear 72 22 64 17.7 77 77 SSE 7 11 29.71 1006 10 16.0934 0 0
10:35 pm 22:35 Clear 71 21.6 64 17.5 78 78 SE 7 11 29.74 1007 10 16.0934 0 0
10:55 pm 22:55 Clear 71 21.8 64 17.5 77 77 S 9 15 29.71 1006 10 16.0934 0 0
11:15 pm 23:15 Clear 72 22.4 63 17.3 73 73 S 6 9 29.74 1007 10 16.0934 0 0
11:35 pm 23:35 Clear 73 23 64 17.5 71 71 S 12 19 29.74 1007 10 16.0934 0 0
11:55 pm 23:55 Clear 73 23 64 17.5 71 71 S 12 19 29.74 1007 10 16.0934 0 0

Powered by AerisWeather